Location: Chequamegon National Forest
(46.1070°N, 90.8420°W)
Time: 18:24:11
(UTC-05:00)

Amateur Radio Satellites - All Passes

Search period start: 24 May 2016 17:54
Search period end: 25 May 2016 17:54
Location: Chequamegon National Forest, 46.1070°N, 90.8420°W

Satellite Date Start Highest point End Downlink Frequencies (MHz)
Time Altitude Azimuth
CUTE-I 24 May 17:57:36 18:02:43 51° 69° (ENE) 18:07:51 437.470
KKS-1 24 May 18:00:20 18:03:58 25° 295° (WNW) 18:07:36 437.445
GOMX 1 24 May 18:01:11 18:05:59 32° 66° (ENE) 18:10:43 467.674
HO-68 24 May 18:05:37 18:09:36 16° 47° (NE) 18:13:36 435.675
LilacSat-2 24 May 18:12:55 18:16:38 55° 74° (ENE) 18:20:23 437.200
NOAA 18 24 May 18:19:51 18:25:19 85° 252° (WSW) 18:30:50 137.9125
RS-15 24 May 18:29:55 18:41:08 70° 118° (ESE) 18:53:01 29.354- 29.394
HORYU 2 24 May 18:30:38 18:31:53 11° 272° (W) 18:33:08 437.375
STARS 24 May 18:46:08 18:49:01 17° 299° (WNW) 18:51:51 437.465
Cubesat XI-IV 24 May 18:50:01 18:55:15 60° 259° (W) 19:00:32 437.490
BRITE-PL 24 May 18:55:58 19:01:26 53° 262° (W) 19:07:02 437.365/2234.400
AUBIESAT-1 24 May 18:56:00 18:59:31 27° 63° (ENE) 19:02:50 437.475
NOAA 15 24 May 18:58:17 19:03:08 36° 263° (W) 19:08:01 137.62
M-CUBED/EXP-1 PRIME 24 May 18:59:13 19:03:05 35° 65° (ENE) 19:06:42 437.505
STRAND 1 24 May 19:01:46 19:04:12 13° 88° (E) 19:06:37 437.568
Cosmos 2504 24 May 19:02:22 19:09:33 71° 282° (WNW) 19:17:09 435.465 / 435.565
CUBESAT XI-V 24 May 19:05:23 19:10:01 57° 288° (WNW) 19:14:37 437.345
PCSat 24 May 19:06:38 19:11:50 44° 49° (NE) 19:16:59 145.827
DOVE 4 24 May 19:07:03 19:12:13 59° 73° (ENE) 19:17:14 437.250
CANX-2 24 May 19:24:04 19:27:35 27° 67° (ENE) 19:31:09 2200.000
SEEDS 24 May 19:34:02 19:37:17 23° 65° (ENE) 19:40:34 437.485
GOMX 1 24 May 19:38:42 19:43:54 42° 263° (W) 19:49:03 467.674
CUTE-I 24 May 19:38:49 19:43:02 24° 267° (W) 19:47:18 437.470
CUBEBUG 2 24 May 19:41:33 19:43:53 14° 61° (ENE) 19:46:10 437.445
YUBILEINY 24 May 19:47:03 19:52:02 16° 307° (NW) 19:57:03 435.215
HO-68 24 May 19:49:00 19:56:03 66° 68° (ENE) 20:03:08 435.675
LilacSat-2 24 May 19:49:43 19:51:18 12° 270° (W) 19:52:53 437.200
CUTE 1.7 + AOD 2 24 May 19:51:26 19:55:25 44° 71° (ENE) 19:59:27 437.475
O/OREOS (USA 219) 24 May 19:51:47 19:56:12 52° 61° (ENE) 20:00:33 437.305
CINEMA 3 24 May 20:03:05 20:07:50 66° 74° (ENE) 20:12:25 145.822/145.860
NOAA 18 24 May 20:04:33 20:06:47 12° 273° (W) 20:09:01 137.9125
BEESAT 3 24 May 20:04:52 20:07:57 21° 39° (NE) 20:11:02 437.485
UWE-3 24 May 20:16:14 20:19:31 21° 65° (ENE) 20:22:44 435.000/436.395/437.385
COMPASS 1 24 May 20:25:31 20:29:33 55° 73° (ENE) 20:33:39 437.405
FUNcube-1 24 May 20:30:15 20:33:15 19° 64° (ENE) 20:36:13 145.935
AUBIESAT-1 24 May 20:30:15 20:33:57 30° 257° (WSW) 20:37:27 437.475
AAUSAT CUBESAT 2 24 May 20:31:28 20:35:28 51° 72° (ENE) 20:39:30 437.432
M-CUBED/EXP-1 PRIME 24 May 20:34:14 20:37:41 23° 259° (W) 20:40:57 437.505
PRISM 24 May 20:38:28 20:41:31 19° 93° (E) 20:44:33 437.425
STRAND 1 24 May 20:38:51 20:44:02 85° 286° (WNW) 20:49:11 437.568
RS-15 24 May 20:43:19 20:54:25 48° 326° (NW) 21:06:07 29.354- 29.394
DOVE 4 24 May 20:46:24 20:50:13 20° 269° (W) 20:53:59 437.250
PCSat 24 May 20:50:17 20:55:06 33° 249° (WSW) 20:59:53 145.827
CANX-2 24 May 20:59:40 21:03:23 30° 265° (W) 21:07:08 2200.000
BEESAT 2 24 May 21:00:41 21:04:27 37° 46° (NE) 21:08:10 435.950
Cosmos 2504 24 May 21:00:47 21:04:39 15° 306° (NW) 21:08:38 435.465 / 435.565
SEEDS 24 May 21:08:56 21:12:47 36° 263° (W) 21:16:42 437.485
CUBEBUG 2 24 May 21:15:37 21:20:02 69° 259° (WSW) 21:24:19 437.445
Oscar 11 24 May 21:17:15 21:21:30 68° 74° (ENE) 21:25:48 145.826/435.025
ZACube-1 24 May 21:24:57 21:29:11 72° 76° (ENE) 21:33:23 437.345
CUTE 1.7 + AOD 2 24 May 21:28:35 21:31:30 18° 269° (W) 21:34:27 437.475
DELFI C3 24 May 21:29:24 21:33:08 42° 71° (ENE) 21:36:55 145.870
CUSAT 1 24 May 21:31:20 21:36:28 18° 53° (NE) 21:41:17 437.405
O/OREOS (USA 219) 24 May 21:32:10 21:35:11 18° 259° (W) 21:38:11 437.305
HO-68 24 May 21:38:27 21:44:17 27° 267° (W) 21:50:10 435.675
GONETS M04 24 May 21:38:58 21:46:33 34° 83° (E) 21:54:05
BEESAT 3 24 May 21:42:04 21:45:57 54° 238° (WSW) 21:49:47 437.485
CINEMA 3 24 May 21:42:36 21:45:22 15° 270° (W) 21:48:05 145.822/145.860
UWE-3 24 May 21:51:40 21:55:45 40° 262° (W) 21:59:47 435.000/436.395/437.385
AIST 1 24 May 21:53:58 21:58:18 60° 95° (E) 22:02:39
Cosmos 2499 24 May 21:56:13 22:01:28 22° 79° (ENE) 22:06:58 435.465 / 435.565
HUMSAT D 24 May 22:02:16 22:06:09 45° 71° (ENE) 22:10:04 437.325/437.525
COMPASS 1 24 May 22:03:10 22:05:29 15° 270° (W) 22:07:49 437.405
FUNcube-1 24 May 22:05:09 22:09:13 45° 261° (W) 22:13:15 145.935
AAUSAT CUBESAT 2 24 May 22:08:47 22:11:16 15° 270° (W) 22:13:46 437.432
PRISM 24 May 22:13:03 22:17:01 42° 291° (WNW) 22:20:57 437.425
UNISAT 6 24 May 22:14:52 22:16:29 12° 89° (E) 22:18:06 437.425
ISS 24 May 22:15:42 22:17:17 13° 133° (SE) 22:18:53 145.825
STRAND 1 24 May 22:19:54 22:22:26 14° 304° (NW) 22:24:59 437.568
TIGRISAT 24 May 22:23:03 22:25:16 14° 90° (E) 22:27:29 435.000
ESTCUBE 1 24 May 22:26:35 22:29:53 20° 63° (ENE) 22:33:12 437.505/2401.250
UKube-1 24 May 22:30:10 22:31:22 11° 57° (ENE) 22:32:34 .
DANDE 24 May 22:35:51 22:42:47 28° 61° (ENE) 22:49:34 436.750
BEESAT 2 24 May 22:38:50 22:42:09 25° 245° (WSW) 22:45:26 435.950
AIST 2 24 May 22:42:53 22:46:40 32° 44° (NE) 22:50:24 435.215
ANTELSAT 24 May 22:54:27 22:58:15 30° 96° (E) 23:02:05 437.575/2403.000
Oscar 11 24 May 22:56:12 22:58:06 13° 271° (W) 23:00:02 145.826/435.025
50 SAT 24 May 22:57:52 23:00:52 25° 68° (ENE) 23:03:54 437.505
RS-15 24 May 23:00:27 23:10:45 31° 359° (N) 23:21:21 29.354- 29.394
VELOX 1 24 May 23:01:45 23:05:39 30° 66° (ENE) 23:09:33 145.980
CUBEBUG 1 24 May 23:03:26 23:07:20 31° 67° (ENE) 23:11:15 437.445
ZACube-1 24 May 23:04:32 23:05:58 11° 272° (W) 23:07:23 437.345
DELFI C3 24 May 23:05:35 23:08:13 17° 268° (W) 23:10:54 145.870
DX 1 24 May 23:07:42 23:11:30 30° 66° (ENE) 23:15:20 434.975-435.025
CUSAT 1 24 May 23:12:11 23:20:15 70° 75° (ENE) 23:27:13 437.405
AIST 1 24 May 23:33:47 23:36:21 15° 294° (WNW) 23:38:54
GONETS M04 24 May 23:34:14 23:42:53 60° 284° (WNW) 23:51:34
AISAT 24 May 23:36:44 23:41:11 70° 73° (ENE) 23:45:40 437.250
HUMSAT D 24 May 23:39:21 23:42:03 17° 269° (W) 23:44:44 437.325/437.525
DUCHIFAT 1 24 May 23:39:40 23:42:17 16° 91° (E) 23:44:53 145.980
SPROUT 24 May 23:45:15 23:49:06 33° 68° (ENE) 23:52:57 437.525
Cosmos 2499 24 May 23:46:24 23:53:37 75° 281° (W) 00:01:24 435.465 / 435.565
UNISAT 6 24 May 23:49:26 23:53:42 71° 286° (WNW) 23:58:00 437.425
ISS 24 May 23:50:00 23:53:15 80° 151° (SSE) 23:56:32 145.825
TIGRISAT 24 May 23:58:09 00:02:23 61° 287° (WNW) 00:06:36 435.000
ESTCUBE 1 25 May 00:01:59 00:06:21 49° 261° (W) 00:10:47 437.505/2401.250
UKube-1 25 May 00:02:22 00:06:42 86° 75° (ENE) 00:11:05 .
PHONESAT 2.4 25 May 00:02:59 00:04:47 14° 158° (SSE) 00:06:35 2401.200-2431.200
BUGSAT 1 25 May 00:11:21 00:13:56 16° 91° (E) 00:16:30 437.445
POPSAT HIP 1 25 May 00:13:04 00:17:02 39° 98° (E) 00:20:57 437.405
QB50P1 25 May 00:13:46 00:17:45 40° 98° (E) 00:21:42 145.935-145.965
QB50P2 25 May 00:14:53 00:18:55 43° 99° (E) 00:22:56 145.880/145.840
POLYITAN 1 25 May 00:17:18 00:21:21 44° 99° (E) 00:25:22 437.675
DANDE 25 May 00:18:07 00:26:34 82° 262° (W) 00:34:36 436.750
AIST 2 25 May 00:21:24 00:25:08 33° 243° (WSW) 00:28:51 435.215
TISAT 1 25 May 00:21:45 00:25:11 24° 65° (ENE) 00:28:37 437.305
ANTELSAT 25 May 00:31:17 00:34:55 28° 293° (WNW) 00:38:35 437.575/2403.000
50 SAT 25 May 00:31:34 00:34:34 24° 265° (W) 00:37:36 437.505
NANOSAT C BR1 25 May 00:33:57 00:38:08 64° 101° (ESE) 00:42:16 145.865
VELOX 1 25 May 00:38:07 00:42:04 30° 264° (W) 00:46:03 145.980
CUBEBUG 1 25 May 00:39:44 00:43:36 29° 265° (W) 00:47:30 437.445
DX 1 25 May 00:43:47 00:47:39 30° 264° (W) 00:51:32 434.975-435.025
CUSAT 1 25 May 00:55:14 01:01:37 28° 278° (W) 01:07:23 437.405
Oscar 19 25 May 01:07:37 01:09:20 12° 86° (E) 01:11:04 437.125/150
SWISSCUBE 25 May 01:09:33 01:13:00 20° 61° (ENE) 01:16:27 437.505
SO-50 25 May 01:10:29 01:14:48 32° 116° (ESE) 01:19:08 436.795
ITUPSAT 1 25 May 01:14:01 01:17:26 20° 61° (ENE) 01:20:52 437.325
DUCHIFAT 1 25 May 01:14:14 01:18:17 50° 288° (WNW) 01:22:19 145.980
RS-15 25 May 01:15:41 01:27:17 46° 32° (NNE) 01:38:59 29.354- 29.394
AISAT 25 May 01:15:58 01:18:09 13° 271° (W) 01:20:20 437.250
SPROUT 25 May 01:21:28 01:25:05 26° 265° (W) 01:28:42 437.525
ISS 25 May 01:26:55 01:29:56 33° 350° (N) 01:32:57 145.825
JAS-2 25 May 01:30:05 01:37:26 47° 96° (E) 01:44:04 435.910
GONETS M04 25 May 01:37:40 01:41:58 14° 309° (NW) 01:46:17
PHONESAT 2.4 25 May 01:38:15 01:40:59 27° 175° (S) 01:43:42 2401.200-2431.200
BEESAT 25 May 01:38:41 01:42:55 33° 66° (ENE) 01:47:09 436.000
Cosmos 2499 25 May 01:44:04 01:48:23 16° 305° (NW) 01:52:54 435.465 / 435.565
BUGSAT 1 25 May 01:45:41 01:49:36 46° 289° (WNW) 01:53:27 437.445
POPSAT HIP 1 25 May 01:49:22 01:52:35 22° 295° (WNW) 01:55:48 437.405
QB50P1 25 May 01:50:07 01:53:18 21° 296° (WNW) 01:56:27 145.935-145.965
QB50P2 25 May 01:51:23 01:54:27 20° 296° (WNW) 01:57:29 145.880/145.840
POLYITAN 1 25 May 01:53:51 01:56:52 19° 296° (WNW) 01:59:52 437.675
YUBILEINY 25 May 01:56:10 02:01:33 17° 54° (NE) 02:06:55 435.215
TISAT 1 25 May 01:56:48 02:00:41 34° 263° (W) 02:04:34 437.305
DANDE 25 May 02:02:36 02:08:15 20° 281° (WNW) 02:13:45 436.750
NANOSAT C BR1 25 May 02:11:06 02:13:23 14° 299° (WNW) 02:15:38 145.865
Gurwin Techsat 1B 25 May 02:42:20 02:47:16 37° 97° (E) 02:52:10 435.225
Oscar 19 25 May 02:44:14 02:49:27 86° 106° (ESE) 02:54:36 437.125/150
SWISSCUBE 25 May 02:45:46 02:50:25 55° 259° (W) 02:55:07 437.505
ITUPSAT 1 25 May 02:50:12 02:54:52 56° 259° (W) 02:59:35 437.325
SO-50 25 May 02:50:30 02:55:12 43° 315° (NW) 02:59:53 436.795
AO-7 25 May 02:54:52 02:56:34 11° 82° (E) 02:58:16 29.400- 29.500
Cosmos 2491 25 May 02:56:48 03:01:15 15° 72° (ENE) 03:05:42 435.465 / 435.565
Cosmos 2504 25 May 03:00:06 03:02:52 12° 51° (NE) 03:05:41 435.465 / 435.565
ISS 25 May 03:03:54 03:06:55 33° 10° (N) 03:09:56 145.825
PHONESAT 2.4 25 May 03:14:43 03:17:18 24° 192° (SSW) 03:19:53 2401.200-2431.200
JAS-2 25 May 03:15:14 03:22:18 42° 297° (WNW) 03:28:49 435.910
BEESAT 25 May 03:16:28 03:20:41 31° 264° (W) 03:24:56 436.000
MOZHAYETS 4 25 May 03:17:17 03:21:13 29° 66° (ENE) 03:25:10
ITAMSAT 1 25 May 03:19:17 03:23:57 32° 96° (E) 03:28:35 435.822/435.867
KKS-1 25 May 03:23:37 03:27:54 46° 70° (ENE) 03:32:12 437.445
RS-15 25 May 03:28:41 03:40:58 78° 239° (WSW) 03:53:14 29.354- 29.394
YUBILEINY 25 May 03:51:26 04:00:12 71° 78° (ENE) 04:08:57 435.215
STARS 25 May 04:07:28 04:11:51 68° 74° (ENE) 04:16:15 437.465
Gurwin Techsat 1B 25 May 04:22:25 04:27:09 33° 295° (WNW) 04:31:51 435.225
Oscar 19 25 May 04:25:07 04:28:04 16° 303° (WNW) 04:31:00 437.125/150
SO-50 25 May 04:34:35 04:36:56 13° 336° (NNW) 04:39:16 436.795
CUBESAT XI-V 25 May 04:34:42 04:38:23 24° 64° (ENE) 04:42:06 437.345
ISS 25 May 04:40:20 04:43:36 81° 209° (SSW) 04:46:52 145.825
HORYU 2 25 May 04:40:31 04:42:26 13° 89° (E) 04:44:21 437.375
AO-7 25 May 04:42:56 04:51:10 58° 103° (ESE) 04:59:22 29.400- 29.500
Cosmos 2491 25 May 04:47:38 04:56:23 71° 94° (E) 05:05:11 435.465 / 435.565
Cosmos 2504 25 May 04:50:24 04:58:27 52° 74° (ENE) 05:06:55 435.465 / 435.565
MOZHAYETS 4 25 May 04:54:15 04:58:19 32° 264° (W) 05:02:27
ITAMSAT 1 25 May 04:58:40 05:03:27 37° 294° (WNW) 05:08:12 435.822/435.867
KKS-1 25 May 05:01:26 05:04:42 20° 267° (W) 05:08:00 437.445
JAS-2 25 May 05:03:50 05:05:13 11° 319° (NW) 05:06:36 435.910
RS-15 25 May 05:43:01 05:51:27 22° 262° (W) 05:59:53 29.354- 29.394
STARS 25 May 05:46:34 05:48:41 13° 270° (W) 05:50:49 437.465
YUBILEINY 25 May 05:49:15 05:56:13 28° 280° (W) 06:03:13 435.215
CUBESAT XI-V 25 May 06:11:03 06:15:30 44° 262° (W) 06:20:01 437.345
CUTE-I 25 May 06:13:07 06:16:26 16° 89° (E) 06:19:44 437.470
HORYU 2 25 May 06:15:04 06:19:30 72° 286° (WNW) 06:23:55 437.375
ISS 25 May 06:17:58 06:19:35 13° 226° (SW) 06:21:13 145.825
STRAND 1 25 May 06:19:23 06:23:33 26° 63° (ENE) 06:27:44 437.568
AO-85 25 May 06:35:46 06:40:29 31° 114° (ESE) 06:45:07 145.980
AO-7 25 May 06:36:08 06:43:39 39° 303° (WNW) 06:51:10 29.400- 29.500
NOAA 18 25 May 06:39:32 06:44:26 33° 96° (E) 06:49:20 137.9125
Cosmos 2504 25 May 06:44:08 06:51:38 39° 274° (W) 06:59:30 435.465 / 435.565
Cosmos 2491 25 May 06:46:36 06:54:03 30° 296° (WNW) 07:01:33 435.465 / 435.565
BRITE-PL 25 May 06:58:49 07:03:57 48° 97° (E) 07:08:39 437.365/2234.400
Cubesat XI-IV 25 May 07:04:33 07:09:41 45° 98° (E) 07:14:48 437.490
DOVE 4 25 May 07:06:14 07:07:40 11° 86° (E) 07:09:04 437.250
NOAA 15 25 May 07:10:09 07:15:29 71° 103° (ESE) 07:20:45 137.62
LilacSat-2 25 May 07:17:54 07:21:39 60° 101° (E) 07:25:23 437.200
PRISM 25 May 07:30:26 07:33:32 21° 64° (ENE) 07:36:39 437.425
GOMX 1 25 May 07:38:21 07:43:07 53° 99° (E) 07:47:30 467.674
Cosmos 2499 25 May 07:43:27 07:45:53 11° 49° (NE) 07:48:22 435.465 / 435.565
GONETS M04 25 May 07:45:33 07:51:31 20° 57° (ENE) 07:57:25
CUTE-I 25 May 07:51:42 07:57:03 74° 287° (WNW) 08:02:23 437.470
STRAND 1 25 May 07:57:36 08:02:29 46° 261° (W) 08:07:25 437.568
CINEMA 3 25 May 07:57:42 07:58:57 11° 88° (E) 08:00:12 145.822/145.860
AIST 1 25 May 07:59:01 08:02:17 20° 69° (ENE) 08:05:31
SO-50 25 May 07:59:35 08:02:20 15° 27° (NNE) 08:05:02 436.795
M-CUBED/EXP-1 PRIME 25 May 08:11:54 08:13:21 12° 97° (E) 08:14:47 437.505
AO-85 25 May 08:15:30 08:20:49 51° 312° (NW) 08:25:59 145.980
NOAA 18 25 May 08:20:06 08:25:10 40° 294° (WNW) 08:30:13 137.9125
AO-7 25 May 08:31:49 08:34:05 11° 327° (NNW) 08:36:22 29.400- 29.500
BRITE-PL 25 May 08:37:48 08:42:05 25° 298° (WNW) 08:46:07 437.365/2234.400
DOVE 4 25 May 08:41:31 08:46:03 75° 285° (WNW) 08:50:19 437.250
CANX-2 25 May 08:41:34 08:45:33 37° 97° (E) 08:49:31 2200.000
Cubesat XI-IV 25 May 08:45:02 08:49:33 29° 297° (WNW) 08:54:05 437.490
SEEDS 25 May 08:50:06 08:53:51 29° 95° (E) 08:57:34 437.485
NOAA 15 25 May 08:51:03 08:54:43 19° 302° (WNW) 08:58:21 137.62
LilacSat-2 25 May 08:53:50 08:55:30 13° 298° (WNW) 08:57:09 437.200
HO-68 25 May 09:01:20 09:08:22 55° 101° (E) 09:15:22 435.675
CUBEBUG 2 25 May 09:04:35 09:07:34 19° 92° (E) 09:10:34 437.445
PRISM 25 May 09:04:40 09:08:35 41° 261° (W) 09:12:33 437.425
Oscar 11 25 May 09:04:42 09:05:27 10° 87° (E) 09:06:09 145.826/435.025
CUTE 1.7 + AOD 2 25 May 09:09:12 09:13:28 64° 101° (E) 09:17:43 437.475
ZACube-1 25 May 09:12:59 09:14:05 11° 88° (E) 09:15:09 437.345
UNISAT 6 25 May 09:15:57 09:18:35 16° 62° (ENE) 09:21:13 437.425
GOMX 1 25 May 09:17:16 09:20:45 20° 299° (WNW) 09:24:05 467.674
TIGRISAT 25 May 09:24:06 09:27:03 18° 63° (ENE) 09:29:58 435.000
CINEMA 3 25 May 09:32:27 09:36:39 70° 286° (WNW) 09:40:46 145.822/145.860
Cosmos 2499 25 May 09:33:13 09:41:23 49° 73° (ENE) 09:49:52 435.465 / 435.565
CUTE-I 25 May 09:33:55 09:36:12 13° 306° (NW) 09:38:30 437.470
AIST 1 25 May 09:35:59 09:40:06 41° 267° (W) 09:44:10
UWE-3 25 May 09:38:32 09:42:14 30° 96° (E) 09:45:56 435.000/436.395/437.385
SO-50 25 May 09:39:11 09:43:53 56° 49° (NE) 09:48:24 436.795
AUBIESAT-1 25 May 09:40:41 09:44:00 57° 292° (WNW) 09:47:14 437.475
COMPASS 1 25 May 09:41:05 09:45:19 75° 102° (ESE) 09:49:32 437.405
GONETS M04 25 May 09:41:09 09:49:56 80° 81° (E) 09:58:37
M-CUBED/EXP-1 PRIME 25 May 09:45:04 09:48:13 40° 294° (WNW) 09:51:18 437.505
AAUSAT CUBESAT 2 25 May 09:46:23 09:50:35 69° 101° (ESE) 09:54:46 437.432
FUNcube-1 25 May 09:50:35 09:54:06 26° 95° (E) 09:57:39 145.935
PCSat 25 May 09:52:01 09:56:04 22° 107° (ESE) 10:00:10 145.827
ANTELSAT 25 May 09:55:37 09:59:38 37° 69° (ENE) 10:03:37 437.575/2403.000
AO-85 25 May 09:59:17 10:02:29 16° 333° (NNW) 10:05:37 145.980
O/OREOS (USA 219) 25 May 10:06:38 10:10:49 37° 107° (ESE) 10:15:01 437.305
CANX-2 25 May 10:17:49 10:21:13 23° 294° (WNW) 10:24:37 2200.000
SEEDS 25 May 10:25:51 10:29:29 28° 293° (WNW) 10:33:08 437.485
DUCHIFAT 1 25 May 10:34:07 10:36:59 18° 63° (ENE) 10:39:50 145.980
Oscar 11 25 May 10:37:48 10:42:09 83° 285° (WNW) 10:46:30 145.826/435.025
DELFI C3 25 May 10:39:03 10:43:00 50° 100° (E) 10:46:55 145.870
CUBEBUG 2 25 May 10:40:30 10:44:24 41° 289° (WNW) 10:48:19 437.445
CUSAT 1 25 May 10:40:35 10:41:59 11° 71° (ENE) 10:43:25 437.405
CUTE 1.7 + AOD 2 25 May 10:46:24 10:48:49 15° 299° (WNW) 10:51:14 437.475
ZACube-1 25 May 10:46:42 10:50:53 74° 284° (WNW) 10:55:05 437.345
HO-68 25 May 10:49:30 10:55:49 35° 301° (WNW) 11:02:08 435.675
UNISAT 6 25 May 10:50:33 10:54:53 60° 259° (W) 10:59:11 437.425
TIGRISAT 25 May 10:59:08 11:03:24 51° 260° (W) 11:07:37 435.000
BUGSAT 1 25 May 11:03:33 11:06:24 18° 63° (ENE) 11:09:15 437.445
POPSAT HIP 1 25 May 11:07:46 11:11:45 41° 70° (ENE) 11:15:44 437.405
QB50P1 25 May 11:08:25 11:12:25 42° 70° (ENE) 11:16:25 145.935-145.965
QB50P2 25 May 11:09:41 11:13:45 45° 71° (ENE) 11:17:49 145.880/145.840
POLYITAN 1 25 May 11:12:07 11:16:11 46° 71° (ENE) 11:20:15 437.675
UWE-3 25 May 11:15:09 11:18:38 26° 293° (WNW) 11:22:08 435.000/436.395/437.385
HUMSAT D 25 May 11:18:16 11:22:23 61° 101° (E) 11:26:32 437.325/437.525
COMPASS 1 25 May 11:18:26 11:20:18 13° 300° (WNW) 11:22:10 437.405
SO-50 25 May 11:20:28 11:23:57 21° 248° (WSW) 11:27:22 436.795
AAUSAT CUBESAT 2 25 May 11:23:28 11:25:33 14° 299° (WNW) 11:27:37 437.432
Cosmos 2499 25 May 11:26:36 11:34:25 43° 273° (W) 11:42:32 435.465 / 435.565
FUNcube-1 25 May 11:26:43 11:30:23 30° 292° (WNW) 11:34:03 145.935
AISAT 25 May 11:27:04 11:28:07 11° 87° (E) 11:29:10 437.250
NANOSAT C BR1 25 May 11:28:11 11:32:22 65° 73° (ENE) 11:36:35 145.865
ANTELSAT 25 May 11:32:58 11:36:28 23° 266° (W) 11:39:56 437.575/2403.000
PCSat 25 May 11:33:38 11:39:00 63° 306° (NW) 11:44:26 145.827
BEESAT 3 25 May 11:37:02 11:38:47 13° 110° (ESE) 11:40:32 437.485
GONETS M04 25 May 11:39:17 11:45:43 24° 282° (WNW) 11:52:08
JAS-2 25 May 11:44:06 11:50:27 32° 58° (ENE) 11:57:06 435.910
O/OREOS (USA 219) 25 May 11:46:22 11:50:18 28° 305° (NW) 11:54:14 437.305
UKube-1 25 May 11:49:03 11:50:39 12° 89° (E) 11:52:14 .
DANDE 25 May 11:49:23 11:52:51 17° 76° (ENE) 11:56:50 436.750
ESTCUBE 1 25 May 11:52:03 11:56:00 28° 95° (E) 11:59:55 437.505/2401.250
50 SAT 25 May 11:58:06 12:01:05 22° 95° (E) 12:04:03 437.505
DUCHIFAT 1 25 May 12:08:13 12:12:20 49° 260° (W) 12:16:26 145.980
DELFI C3 25 May 12:14:56 12:17:30 16° 297° (WNW) 12:20:03 145.870
CUSAT 1 25 May 12:16:04 12:22:09 59° 93° (E) 12:29:36 437.405
Oscar 11 25 May 12:16:47 12:17:33 10° 302° (WNW) 12:18:19 145.826/435.025
VELOX 1 25 May 12:25:08 12:29:20 40° 98° (E) 12:33:30 145.980
CUBEBUG 1 25 May 12:25:10 12:29:22 42° 98° (E) 12:33:30 437.445
Oscar 19 25 May 12:25:42 12:29:49 24° 62° (ENE) 12:33:55 437.125/150
DX 1 25 May 12:28:53 12:32:58 37° 98° (E) 12:37:00 434.975-435.025
Gurwin Techsat 1B 25 May 12:29:48 12:32:03 13° 54° (NE) 12:34:17 435.225
BEESAT 2 25 May 12:32:46 12:36:09 27° 116° (ESE) 12:39:35 435.950
BUGSAT 1 25 May 12:37:21 12:41:27 49° 260° (W) 12:45:32 437.445
POPSAT HIP 1 25 May 12:44:32 12:47:42 20° 267° (W) 12:50:53 437.405
QB50P1 25 May 12:45:16 12:48:23 20° 267° (W) 12:51:30 145.935-145.965
QB50P2 25 May 12:46:50 12:49:47 18° 268° (W) 12:52:45 145.880/145.840
POLYITAN 1 25 May 12:49:20 12:52:14 18° 268° (W) 12:55:09 437.675
HUMSAT D 25 May 12:55:17 12:57:34 15° 298° (WNW) 12:59:51 437.325/437.525
AISAT 25 May 13:00:45 13:05:13 83° 284° (WNW) 13:09:36 437.250
SPROUT 25 May 13:04:05 13:08:10 43° 99° (E) 13:12:13 437.525
ITAMSAT 1 25 May 13:05:18 13:06:13 10° 52° (NE) 13:07:10 435.822/435.867
NANOSAT C BR1 25 May 13:06:36 13:08:33 13° 271° (W) 13:10:29 145.865
BEESAT 3 25 May 13:12:00 13:15:57 71° 309° (NW) 13:19:54 437.485
PCSat 25 May 13:20:09 13:23:31 16° 328° (NNW) 13:26:54 145.827
UKube-1 25 May 13:22:53 13:27:13 74° 286° (WNW) 13:31:31 .
AO-85 25 May 13:25:30 13:28:02 14° 23° (NNE) 13:30:28 145.980
JAS-2 25 May 13:27:36 13:34:51 68° 259° (W) 13:42:42 435.910
ESTCUBE 1 25 May 13:28:44 13:32:49 33° 293° (WNW) 13:36:53 437.505/2401.250
DANDE 25 May 13:28:58 13:34:20 84° 283° (WNW) 13:41:29 436.750
50 SAT 25 May 13:31:36 13:34:50 28° 292° (WNW) 13:38:03 437.505
TISAT 1 25 May 13:38:04 13:41:43 28° 96° (E) 13:45:19 437.305
AO-7 25 May 13:54:32 14:00:57 26° 49° (NE) 14:07:23 29.400- 29.500
CUSAT 1 25 May 13:59:05 14:04:49 32° 297° (WNW) 14:11:31 437.405
CUBEBUG 1 25 May 14:02:02 14:05:24 22° 296° (WNW) 14:08:44 437.445
VELOX 1 25 May 14:02:05 14:05:35 23° 296° (WNW) 14:09:03 145.980
Oscar 19 25 May 14:03:44 14:08:48 52° 260° (W) 14:13:54 437.125/150
DX 1 25 May 14:05:27 14:08:59 24° 296° (WNW) 14:12:29 434.975-435.025
Gurwin Techsat 1B 25 May 14:05:48 14:11:06 75° 73° (ENE) 14:16:25 435.225
BEESAT 2 25 May 14:10:15 14:13:55 34° 315° (NW) 14:17:36 435.950
AIST 2 25 May 14:21:12 14:24:38 26° 115° (ESE) 14:28:06 435.215
ITAMSAT 1 25 May 14:39:36 14:44:41 63° 71° (ENE) 14:49:50 435.822/435.867
AISAT 25 May 14:39:49 14:40:56 11° 303° (WNW) 14:42:03 437.250
SPROUT 25 May 14:40:43 14:43:51 20° 296° (WNW) 14:46:59 437.525
SWISSCUBE 25 May 14:43:26 14:47:43 31° 96° (E) 14:51:57 437.505
ITUPSAT 1 25 May 14:48:14 14:52:29 30° 96° (E) 14:56:43 437.325
BEESAT 3 25 May 14:52:22 14:54:22 13° 328° (NNW) 14:56:22 437.485
Cosmos 2491 25 May 14:55:04 15:03:15 41° 69° (ENE) 15:11:19 435.465 / 435.565
YUBILEINY 25 May 15:03:53 15:08:30 16° 73° (ENE) 15:13:07 435.215
AO-85 25 May 15:05:07 15:09:48 47° 46° (NE) 15:14:03 145.980
BEESAT 25 May 15:13:12 15:17:54 53° 101° (E) 15:22:35 436.000
TISAT 1 25 May 15:13:44 15:17:20 28° 293° (WNW) 15:20:54 437.305
DANDE 25 May 15:14:49 15:18:43 17° 308° (NW) 15:23:12 436.750
JAS-2 25 May 15:17:53 15:21:22 14° 280° (W) 15:24:58 435.910
HORYU 2 25 May 15:40:40 15:43:35 18° 61° (ENE) 15:46:30 437.375
AO-7 25 May 15:44:27 15:52:46 89° 258° (WSW) 16:01:09 29.400- 29.500
Gurwin Techsat 1B 25 May 15:48:25 15:51:38 16° 271° (W) 15:54:52 435.225
RS-15 25 May 15:52:51 15:55:59 11° 90° (E) 15:59:09 29.354- 29.394
AIST 2 25 May 15:59:05 16:02:58 39° 314° (NW) 16:06:53 435.215
ITAMSAT 1 25 May 16:21:03 16:24:36 19° 269° (W) 16:28:11 435.822/435.867
SWISSCUBE 25 May 16:21:12 16:25:30 34° 294° (WNW) 16:29:48 437.505
ITUPSAT 1 25 May 16:26:00 16:30:19 34° 293° (WNW) 16:34:38 437.325
NOAA 18 25 May 16:31:16 16:33:57 14° 53° (NE) 16:36:37 137.9125
BRITE-PL 25 May 16:36:16 16:38:49 13° 55° (NE) 16:41:23 437.365/2234.400
MOZHAYETS 4 25 May 16:45:58 16:50:27 48° 99° (E) 16:54:56
AO-85 25 May 16:46:12 16:49:56 24° 248° (WSW) 16:53:26 145.980
KKS-1 25 May 16:48:14 16:52:40 65° 102° (ESE) 16:57:03 437.445
BEESAT 25 May 16:51:48 16:55:20 21° 298° (WNW) 16:58:51 436.000
Cosmos 2491 25 May 16:51:57 17:00:17 51° 271° (W) 17:08:34 435.465 / 435.565
Cubesat XI-IV 25 May 16:52:03 16:55:05 16° 56° (NE) 16:58:07 437.490
PCSat 25 May 16:54:13 16:55:45 11° 22° (NNE) 16:57:16 145.827
NOAA 15 25 May 16:54:42 16:58:46 23° 60° (ENE) 17:02:50 137.62
YUBILEINY 25 May 16:55:03 17:03:41 75° 95° (E) 17:12:22 435.215
GOMX 1 25 May 17:13:16 17:15:47 13° 57° (ENE) 17:18:18 467.674
HORYU 2 25 May 17:15:23 17:19:44 57° 259° (W) 17:24:07 437.375
STARS 25 May 17:30:31 17:34:55 87° 281° (W) 17:39:16 437.465
Cosmos 2504 25 May 17:33:02 17:39:27 36° 85° (E) 17:46:09 435.465 / 435.565
CUTE-I 25 May 17:36:56 17:41:41 35° 65° (ENE) 17:46:27 437.470
AO-7 25 May 17:40:50 17:46:38 21° 271° (W) 17:52:29 29.400- 29.500
